EW1617 Weather Reports


Display with metric or nautical units.
time (UTC)temp
F
wind
direction
speed
MPH
gust
MPH
rain 1hr
in
rain 24hr
in
rain mn
in
humidity
%
barometer
mb
20260831100007 57 180 0.0 0.0 0.00 0.00 0.00 98 1013.2
20260831095507 57 180 0.0 0.0 0.00 0.00 0.00 98 1013.2
20260831095007 57 180 0.0 0.0 0.00 0.00 0.00 98 1013.2
20260831094507 57 180 0.0 0.0 0.00 0.00 0.00 98 1013.2
20260831094007 57 180 0.0 0.0 0.00 0.00 0.00 98 1013.2
20260831093507 57 180 0.0 0.0 0.00 0.00 0.00 98 1013.6
20260831093007 57 180 0.0 0.0 0.00 0.00 0.00 98 1013.6
20260831092507 57 180 0.0 0.0 0.00 0.00 0.00 98 1013.6
20260831092007 57 180 0.0 0.0 0.00 0.00 0.00 98 1013.6
20260831091506 57 180 0.0 0.0 0.00 0.00 0.00 98 1013.6
20260831091007 57 180 0.0 0.0 0.00 0.00 0.00 98 1013.6
20260831090507 57 180 0.0 0.0 0.00 0.00 0.00 98 1013.6
20260831090007 57 180 0.0 0.0 0.00 0.00 0.00 98 1013.6
20260831085507 57 180 0.0 0.0 0.00 0.00 0.00 98 1013.6
20260831085007 58 180 0.0 0.0 0.00 0.00 0.00 97 1013.6
20260831084507 58 180 0.0 0.0 0.00 0.00 0.00 97 1013.9
20260831084007 58 180 0.0 0.0 0.00 0.00 0.00 97 1013.9
20260831083508 58 180 0.0 0.0 0.00 0.00 0.00 97 1013.9
20260831083007 58 180 0.0 0.0 0.00 0.00 0.00 97 1013.9
20260831082507 58 180 0.0 0.0 0.00 0.00 0.00 97 1013.9
20260831082007 58 180 0.0 0.0 0.00 0.00 0.00 97 1013.9
20260831081508 59 180 0.0 0.0 0.00 0.00 0.00 96 1013.9
20260831081006 59 180 0.0 0.0 0.00 0.00 0.00 96 1013.9
20260831080507 59 180 0.0 0.0 0.00 0.00 0.00 96 1014.1
20260831080007 59 180 0.0 0.0 0.00 0.00 0.00 96 1014.2
20260831075507 59 180 0.0 0.0 0.00 0.00 0.00 96 1014.2
20260831075006 60 180 0.0 0.0 0.00 0.00 0.00 96 1014.2
20260831074508 60 180 0.0 0.0 0.00 0.00 0.00 95 1014.2
20260831074007 60 180 0.0 0.0 0.00 0.00 0.00 95 1014.2
20260831073507 60 180 0.0 0.0 0.00 0.00 0.00 95 1014.2
20260831073006 60 180 0.0 0.0 0.00 0.00 0.00 95 1014.2
20260831072507 61 180 0.0 1.0 0.00 0.00 0.00 95 1014.2
20260831072007 61 180 0.0 1.0 0.00 0.00 0.00 95 1014.2
20260831071507 61 189 0.0 1.0 0.00 0.00 0.00 95 1014.2
20260831071007 61 225 0.0 0.0 0.00 0.00 0.00 94 1014.4
20260831070507 61 225 0.0 1.0 0.00 0.00 0.00 94 1014.6
20260831070007 61 225 0.0 1.0 0.00 0.00 0.00 94 1014.6
20260831065507 62 225 0.0 0.0 0.00 0.00 0.00 94 1014.6
20260831065007 62 225 0.0 0.0 0.00 0.00 0.00 94 1014.6
20260831064507 62 225 0.0 1.0 0.00 0.00 0.00 94 1014.6
20260831064007 62 225 1.0 4.0 0.00 0.00 0.00 94 1014.6
20260831063507 62 225 0.0 1.0 0.00 0.00 0.00 93 1014.6
20260831063007 63 225 0.0 0.0 0.00 0.00 0.00 93 1014.6
20260831062507 63 279 1.0 3.0 0.00 0.00 0.00 93 1014.6
20260831062007 63 225 2.0 3.0 0.00 0.00 0.00 93 1014.8
20260831061507 63 243 1.0 3.0 0.00 0.00 0.00 93 1014.9
20260831061007 63 252 2.0 5.0 0.00 0.00 0.00 93 1014.9
20260831060507 63 0 1.0 3.0 0.00 0.00 0.00 93 1014.9
20260831060007 63 0 0.0 1.0 0.00 0.00 0.00 92 1014.9
20260831055507 63 99 3.0 5.0 0.00 0.00 0.00 92 1014.9
20260831055007 64 225 2.0 5.0 0.00 0.00 0.00 92 1015.0
20260831054507 64 90 1.0 2.0 0.00 0.00 0.00 92 1015.0
20260831054007 64 180 2.0 5.0 0.00 0.00 0.00 92 1015.2
20260831053507 64 180 3.0 5.0 0.00 0.00 0.00 92 1015.2
20260831053007 64 243 3.0 6.0 0.00 0.00 0.00 92 1015.2
20260831052507 64 228 2.0 4.0 0.00 0.00 0.00 92 1015.2
20260831052007 64 261 2.0 5.0 0.00 0.00 0.00 92 1015.2
20260831051507 64 271 2.0 5.0 0.00 0.00 0.00 91 1015.2
20260831051007 64 225 2.0 4.0 0.00 0.00 0.00 91 1015.2
20260831050506 64 126 4.0 6.0 0.00 0.00 0.00 91 1015.5
20260831050007 64 207 4.0 6.0 0.00 0.00 0.00 90 1015.6
20260831045507 64 207 1.0 5.0 0.00 0.00 0.00 89 1015.6
20260831045007 64 304 0.0 1.0 0.00 0.00 0.00 89 1015.6
20260831044508 65 254 1.0 3.0 0.00 0.00 0.00 88 1015.6
20260831044007 65 225 2.0 4.0 0.00 0.00 0.00 87 1015.6
20260831043507 65 216 3.0 5.0 0.00 0.00 0.00 87 1015.6
20260831043007 65 164 2.0 6.0 0.00 0.00 0.00 86 1015.6
20260831042507 65 207 3.0 5.0 0.00 0.00 0.00 86 1015.6
20260831042007 65 315 2.0 5.0 0.00 0.00 0.00 85 1015.6
20260831041507 65 225 1.0 4.0 0.00 0.00 0.00 84 1015.6
20260831041006 65 270 0.0 0.0 0.00 0.00 0.00 83 1015.6
20260831040508 65 306 1.0 3.0 0.00 0.00 0.00 82 1015.6
20260831040007 66 270 1.0 3.0 0.00 0.00 0.00 81 1015.6
20260831035507 66 81 2.0 6.0 0.00 0.00 0.00 81 1015.6
20260831035007 66 189 2.0 4.0 0.00 0.00 0.00 80 1015.6
20260831034507 66 216 2.0 4.0 0.00 0.00 0.00 79 1015.6
20260831034007 66 180 1.0 2.0 0.00 0.00 0.00 78 1015.6
20260831033507 66 180 1.0 5.0 0.00 0.00 0.00 77 1015.6
20260831033007 66 243 2.0 5.0 0.00 0.00 0.00 75 1015.6
20260831032506 67 54 2.0 5.0 0.00 0.00 0.00 74 1015.6
20260831032008 67 234 3.0 5.0 0.00 0.00 0.00 73 1015.6
20260831031507 67 90 2.0 7.0 0.00 0.00 0.00 72 1015.8
20260831031007 67 162 1.0 2.0 0.00 0.00 0.00 71 1015.9
20260831030506 67 153 2.0 5.0 0.00 0.00 0.00 70 1015.9
20260831030007 67 207 2.0 3.0 0.00 0.00 0.00 69 1015.9
20260831025507 68 225 5.0 8.0 0.00 0.00 0.00 69 1015.9
20260831025007 68 171 1.0 2.0 0.00 0.00 0.00 67 1015.6
20260831024507 68 108 3.0 5.0 0.00 0.00 0.00 67 1015.9
20260831024007 68 261 2.0 5.0 0.00 0.00 0.00 67 1015.9
20260831023506 69 63 2.0 5.0 0.00 0.00 0.00 66 1015.9
20260831023007 69 207 2.0 5.0 0.00 0.00 0.00 65 1015.9
20260831022507 69 252 2.0 5.0 0.00 0.00 0.00 63 1015.9
20260831022007 69 245 3.0 5.0 0.00 0.00 0.00 62 1015.9
20260831021507 69 207 1.0 4.0 0.00 0.00 0.00 62 1015.9
20260831021007 70 207 3.0 5.0 0.00 0.00 0.00 61 1015.9
20260831020507 70 216 3.0 5.0 0.00 0.00 0.00 60 1015.9
20260831020007 70 355 2.0 7.0 0.00 0.00 0.00 60 1015.9
20260831015507 70 243 3.0 5.0 0.00 0.00 0.00 59 1015.9
20260831015007 70 171 2.0 4.0 0.00 0.00 0.00 58 1016.1
20260831014507 71 144 1.0 2.0 0.00 0.00 0.00 58 1016.3
20260831014006 71 282 3.0 5.0 0.00 0.00 0.00 58 1016.3
20260831013507 71 108 2.0 3.0 0.00 0.00 0.00 57 1016.3
20260831013007 71 144 2.0 3.0 0.00 0.00 0.00 57 1016.3
20260831012507 71 252 2.0 7.0 0.00 0.00 0.00 56 1016.3
20260831012007 71 198 6.0 7.0 0.00 0.00 0.00 57 1016.3
20260831011507 71 99 4.0 7.0 0.00 0.00 0.00 56 1016.3
20260831011007 72 144 4.0 6.0 0.00 0.00 0.00 55 1016.4
20260831010507 72 108 4.0 6.0 0.00 0.00 0.00 55 1016.6
20260831010007 72 118 5.0 10.0 0.00 0.00 0.00 54 1016.6
20260831005507 72 126 4.0 7.0 0.00 0.00 0.00 54 1016.6
20260831005006 73 153 7.0 8.0 0.00 0.00 0.00 53 1016.6
20260831004508 73 54 5.0 7.0 0.00 0.00 0.00 53 1016.6
20260831004006 74 198 5.0 6.0 0.00 0.00 0.00 52 1016.6
20260831003507 74 225 2.0 4.0 0.00 0.00 0.00 52 1016.6
20260831003007 74 234 5.0 7.0 0.00 0.00 0.00 52 1016.7
20260831002507 74 158 2.0 5.0 0.00 0.00 0.00 52 1016.9
20260831002007 74 144 3.0 5.0 0.00 0.00 0.00 51 1016.9
20260831001507 75 81 1.0 4.0 0.00 0.00 0.00 50 1016.9
20260831001007 76 90 3.0 5.0 0.00 0.00 0.00 49 1016.9
20260831000507 76 171 4.0 7.0 0.00 0.00 0.00 48 1016.9
20260831000006 76 236 0.0 1.0 0.00 0.00 0.00 48 1016.9
20260830235507 76 45 3.0 5.0 0.00 0.00 0.00 49 1016.9
20260830235007 76 124 4.0 5.0 0.00 0.00 0.00 49 1016.9
20260830234507 76 75 3.0 6.0 0.00 0.00 0.00 48 1016.9
20260830234007 77 169 2.0 5.0 0.00 0.00 0.00 47 1017.1
20260830233508 77 150 5.0 8.0 0.00 0.00 0.00 47 1017.2
20260830233006 78 113 3.0 5.0 0.00 0.00 0.00 47 1017.3
20260830232507 78 203 5.0 6.0 0.00 0.00 0.00 46 1017.3
20260830232007 79 216 5.0 7.0 0.00 0.00 0.00 44 1017.3
20260830231507 79 310 1.0 3.0 0.00 0.00 0.00 44 1017.3
20260830231006 79 101 5.0 6.0 0.00 0.00 0.00 44 1017.3
20260830230507 79 180 5.0 6.0 0.00 0.00 0.00 45 1017.3
20260830230007 79 113 2.0 5.0 0.00 0.00 0.00 45 1017.5
20260830225507 79 99 2.0 4.0 0.00 0.00 0.00 46 1017.6
20260830225007 79 126 4.0 6.0 0.00 0.00 0.00 46 1017.6
20260830224507 78 153 1.0 5.0 0.00 0.00 0.00 47 1017.7
20260830224006 78 207 4.0 7.0 0.00 0.00 0.00 46 1018.0
20260830223507 78 162 7.0 10.0 0.00 0.00 0.00 45 1018.0
20260830223007 78 243 6.0 7.0 0.00 0.00 0.00 45 1018.0
20260830222507 79 218 4.0 8.0 0.00 0.00 0.00 45 1018.0
20260830222007 79 63 4.0 8.0 0.00 0.00 0.00 46 1018.0
20260830221506 79 63 5.0 6.0 0.00 0.00 0.00 46 1018.3
20260830221007 79 315 1.0 4.0 0.00 0.00 0.00 45 1018.3
20260830220507 79 207 3.0 6.0 0.00 0.00 0.00 46 1018.3
20260830220007 79 171 3.0 6.0 0.00 0.00 0.00 46 1018.5
20260830215507 78 108 3.0 7.0 0.00 0.00 0.00 46 1018.6
20260830215007 78 252 4.0 6.0 0.00 0.00 0.00 46 1018.6
20260830214507 77 126 3.0 6.0 0.00 0.00 0.00 47 1018.8
20260830214007 77 207 3.0 7.0 0.00 0.00 0.00 47 1019.0
20260830213507 77 101 4.0 7.0 0.00 0.00 0.00 47 1019.0
20260830213006 78 225 4.0 7.0 0.00 0.00 0.00 47 1019.0
20260830212507 78 244 3.0 5.0 0.00 0.00 0.00 47 1019.0
20260830212007 77 315 1.0 3.0 0.00 0.00 0.00 48 1019.0
20260830211507 77 193 2.0 3.0 0.00 0.00 0.00 48 1019.0
20260830211007 76 180 0.0 1.0 0.00 0.00 0.00 48 1019.0
20260830210507 76 189 4.0 7.0 0.00 0.00 0.00 48 1019.3
20260830210007 75 225 0.0 2.0 0.00 0.00 0.00 49 1019.3
20260830205507 75 243 3.0 6.0 0.00 0.00 0.00 49 1019.3
20260830205012 75 153 4.0 5.0 0.00 0.00 0.00 49 1019.3
20260830204508 74 144 3.0 5.0 0.00 0.00 0.00 50 1019.3
20260830204006 74 0 0.0 0.0 0.00 0.00 0.00 50 1019.6
20260830203507 75 0 0.0 0.0 0.00 0.00 0.00 50 1019.6
20260830203007 74 288 2.0 3.0 0.00 0.00 0.00 51 1019.6
20260830202507 74 306 5.0 7.0 0.00 0.00 0.00 51 1019.6
20260830202007 74 108 5.0 7.0 0.00 0.00 0.00 50 1019.6
20260830201507 75 117 3.0 5.0 0.00 0.00 0.00 50 1019.8
20260830201007 75 243 6.0 9.0 0.00 0.00 0.00 50 1019.7
20260830200507 74 162 5.0 6.0 0.00 0.00 0.00 51 1019.9
20260830200007 73 216 1.0 3.0 0.00 0.00 0.00 54 1020.0
20260830195507 71 325 2.0 6.0 0.00 0.00 0.00 55 1020.0
20260830195007 71 162 6.0 8.0 0.00 0.00 0.00 54 1020.0
20260830194507 71 126 3.0 5.0 0.00 0.00 0.00 56 1020.0
20260830194007 71 153 5.0 6.0 0.00 0.00 0.00 54 1020.0
20260830193507 71 270 2.0 6.0 0.00 0.00 0.00 56 1020.3
20260830193007 70 279 2.0 5.0 0.00 0.00 0.00 57 1020.3
20260830192507 69 225 1.0 2.0 0.00 0.00 0.00 59 1020.3
20260830192007 69 225 0.0 1.0 0.00 0.00 0.00 59 1020.3
20260830191507 68 225 1.0 1.0 0.00 0.00 0.00 61 1020.3
20260830191007 67 225 1.0 3.0 0.00 0.00 0.00 61 1020.3
20260830190507 68 243 2.0 7.0 0.00 0.00 0.00 63 1020.3
20260830190007 68 315 0.0 0.0 0.00 0.00 0.00 63 1020.6
20260830185507 67 270 1.0 4.0 0.00 0.00 0.00 63 1020.7
20260830185006 67 261 1.0 4.0 0.00 0.00 0.00 64 1020.7
20260830184507 66 225 1.0 2.0 0.00 0.00 0.00 65 1020.7
20260830184007 66 261 3.0 7.0 0.00 0.00 0.00 65 1020.7
20260830183507 66 216 5.0 10.0 0.00 0.00 0.00 64 1020.7
20260830183007 66 225 2.0 5.0 0.00 0.00 0.00 68 1020.7
20260830182507 65 261 1.0 3.0 0.00 0.00 0.00 71 1020.7
20260830182007 65 315 1.0 2.0 0.00 0.00 0.00 74 1020.7
20260830181507 64 315 0.0 2.0 0.00 0.00 0.00 76 1020.7
20260830181007 63 315 0.0 0.0 0.00 0.00 0.00 79 1020.7
20260830180507 63 216 3.0 5.0 0.00 0.00 0.00 80 1020.7
20260830180007 63 99 3.0 5.0 0.00 0.00 0.00 80 1020.7
20260830175507 63 273 2.0 5.0 0.00 0.00 0.00 81 1020.7
20260830175007 63 81 1.0 5.0 0.00 0.00 0.00 81 1020.7
20260830174512 63 144 1.0 3.0 0.00 0.00 0.00 87 1020.7
20260830174007 62 0 0.0 0.0 0.00 0.00 0.00 91 1020.7
20260830173507 62 0 0.0 3.0 0.00 0.00 0.00 92 1020.7
20260830173006 61 0 1.0 3.0 0.00 0.00 0.00 92 1020.7
20260830172507 61 0 0.0 0.0 0.00 0.00 0.00 93 1020.7
20260830172008 61 0 0.0 0.0 0.00 0.00 0.00 93 1020.7
20260830171506 61 0 1.0 3.0 0.00 0.00 0.00 94 1020.7
20260830171007 61 0 1.0 5.0 0.00 0.00 0.00 93 1020.7
20260830170507 61 180 0.0 1.0 0.00 0.00 0.00 93 1020.7
20260830170007 61 315 1.0 5.0 0.00 0.00 0.00 93 1020.7
20260830165507 61 216 0.0 2.0 0.00 0.00 0.00 94 1020.7
20260830165007 60 279 0.0 1.0 0.00 0.00 0.00 94 1020.7
20260830164508 60 180 4.0 7.0 0.00 0.00 0.00 94 1020.7
20260830164007 60 279 4.0 7.0 0.00 0.00 0.00 94 1020.7
20260830163507 60 325 1.0 5.0 0.00 0.00 0.00 95 1020.7
20260830163007 59 315 1.0 2.0 0.00 0.00 0.00 96 1020.7
20260830162507 59 297 1.0 3.0 0.00 0.00 0.00 96 1021.0
20260830162007 59 281 2.0 5.0 0.00 0.00 0.00 97 1021.0
20260830161506 58 270 0.0 0.0 0.00 0.00 0.00 98 1021.0
20260830161007 58 270 0.0 0.0 0.00 0.00 0.00 98 1021.0
20260830160508 57 270 0.0 0.0 0.00 0.00 0.00 98 1021.0
20260830160007 57 270 0.0 0.0 0.00 0.00 0.00 99 1021.0
20260830155507 57 270 2.0 5.0 0.00 0.00 0.00 99 1021.0
20260830155007 56 270 0.0 0.0 0.00 0.00 0.00 99 1021.0
20260830154508 56 270 0.0 0.0 0.00 0.00 0.00 99 1021.0
20260830154007 56 270 0.0 0.0 0.00 0.00 0.00 99 1021.0
20260830153507 55 270 0.0 0.0 0.00 0.00 0.00 99 1021.0
20260830153007 55 270 0.0 0.0 0.00 0.00 0.00 99 1021.0
20260830152507 54 270 0.0 0.0 0.00 0.00 0.00 99 1021.2
20260830152006 54 270 0.0 0.0 0.00 0.00 0.00 99 1021.3
20260830151508 53 270 0.0 1.0 0.00 0.00 0.00 99 1021.3
20260830151007 53 270 0.0 1.0 0.00 0.00 0.00 99 1021.3
20260830150507 52 270 0.0 0.0 0.00 0.00 0.00 99 1021.3
20260830150007 52 270 0.0 0.0 0.00 0.00 0.00 99 1021.3
20260830145506 51 270 0.0 0.0 0.00 0.00 0.00 99 1021.3
20260830145007 51 270 0.0 0.0 0.00 0.00 0.00 99 1021.3
20260830144507 51 270 0.0 0.0 0.00 0.00 0.00 99 1021.3
20260830144007 51 270 0.0 0.0 0.00 0.00 0.00 99 1021.3
20260830143506 50 270 0.0 0.0 0.00 0.00 0.00 99 1021.3
20260830143007 50 270 0.0 0.0 0.00 0.00 0.00 99 1021.3
20260830142507 50 270 0.0 0.0 0.00 0.00 0.00 99 1021.3
20260830142007 50 270 0.0 0.0 0.00 0.00 0.00 99 1021.3
20260830141507 50 270 0.0 0.0 0.00 0.00 0.00 99 1021.3
20260830141007 50 270 0.0 0.0 0.00 0.00 0.00 99 1021.3
20260830140507 50 270 0.0 0.0 0.00 0.00 0.00 99 1021.2
20260830140007 50 270 0.0 0.0 0.00 0.00 0.00 99 1021.0
20260830135507 50 270 0.0 0.0 0.00 0.00 0.00 99 1021.0
20260830135007 50 270 0.0 0.0 0.00 0.00 0.00 99 1021.0
20260830134507 51 270 0.0 0.0 0.00 0.00 0.00 99 1021.0
20260830134007 51 270 0.0 0.0 0.00 0.00 0.00 99 1021.0
20260830133509 51 270 0.0 0.0 0.00 0.00 0.00 99 1021.0
20260830133007 51 270 0.0 0.0 0.00 0.00 0.00 99 1021.0
20260830132507 51 270 0.0 0.0 0.00 0.00 0.00 99 1021.0
20260830132007 51 270 0.0 0.0 0.00 0.00 0.00 99 1021.0
20260830131507 50 270 0.0 0.0 0.00 0.00 0.00 99 1021.0
20260830131007 50 270 0.0 0.0 0.00 0.00 0.00 99 1021.0
20260830130507 50 270 0.0 0.0 0.00 0.00 0.00 99 1021.0
20260830130007 50 270 0.0 0.0 0.00 0.00 0.00 99 1021.0
20260830125507 50 270 0.0 0.0 0.00 0.00 0.00 99 1021.0
20260830125007 50 270 0.0 0.0 0.00 0.00 0.00 99 1021.0
20260830124507 50 270 0.0 0.0 0.00 0.00 0.00 99 1021.0
20260830124007 49 270 0.0 0.0 0.00 0.00 0.00 99 1020.7
20260830123507 49 270 0.0 0.0 0.00 0.00 0.00 99 1020.7
20260830123007 49 270 0.0 0.0 0.00 0.00 0.00 99 1020.7
20260830122508 49 270 0.0 0.0 0.00 0.00 0.00 99 1020.7
20260830122007 49 270 0.0 0.0 0.00 0.00 0.00 99 1020.7
20260830121507 49 270 0.0 0.0 0.00 0.00 0.00 99 1020.7
20260830121007 50 270 0.0 0.0 0.00 0.00 0.00 99 1020.7
20260830120507 50 270 0.0 0.0 0.00 0.00 0.00 99 1020.7
20260830120007 50 270 0.0 0.0 0.00 0.00 0.00 99 1020.7
20260830115507 50 270 0.0 0.0 0.00 0.00 0.00 99 1020.7
20260830115007 50 270 0.0 0.0 0.00 0.00 0.00 99 1020.7
20260830114507 50 270 0.0 0.0 0.00 0.00 0.00 99 1020.7
20260830114007 50 270 0.0 0.0 0.00 0.00 0.00 99 1020.7
20260830113507 50 270 0.0 0.0 0.00 0.00 0.00 99 1020.7
20260830113007 50 270 0.0 0.0 0.00 0.00 0.00 99 1020.7
20260830112507 50 270 0.0 0.0 0.00 0.00 0.00 99 1020.7
20260830112006 50 270 0.0 0.0 0.00 0.00 0.00 99 1020.7
20260830111508 50 270 0.0 0.0 0.00 0.00 0.00 99 1020.7
20260830111007 51 270 0.0 0.0 0.00 0.00 0.00 99 1020.7
20260830110508 51 270 0.0 0.0 0.00 0.00 0.00 99 1020.7
20260830110006 51 270 0.0 0.0 0.00 0.00 0.00 99 1020.7
20260830105507 51 270 0.0 0.0 0.00 0.00 0.00 99 1020.7
20260830105007 51 270 0.0 0.0 0.00 0.00 0.00 99 1020.7
20260830104506 51 270 0.0 0.0 0.00 0.00 0.00 99 1020.7
20260830104007 51 270 0.0 0.0 0.00 0.00 0.00 99 1020.7
20260830103507 51 270 0.0 0.0 0.00 0.00 0.00 99 1020.7
20260830103007 51 270 0.0 0.0 0.00 0.00 0.00 99 1020.7
20260830102507 51 270 0.0 0.0 0.00 0.00 0.00 99 1020.6
20260830102007 51 270 0.0 0.0 0.00 0.00 0.00 99 1020.3
20260830101507 51 270 0.0 0.0 0.00 0.00 0.00 99 1020.3
20260830101006 51 270 0.0 0.0 0.00 0.00 0.00 99 1020.3
20260830100507 51 270 0.0 0.0 0.00 0.00 0.00 99 1020.3